Regional Weather Roundup
Issued by NWS

Home | Current Version | Previous Version | Graphics & Text | Print | Product List | Glossary On
Versions: 1 2 3 4 5 6 7 8 9 10 11 12 13 14 15 16 17 18 19 20 21 22 23 24 25 26 27 28 29 30 31 32 33 34 35 36 37 38 39 40 41 42 43 44 45 46 47 48 49 50
000
ASUS43 KMPX 242101
RWRMN
WEATHER ROUNDUP FOR MINNESOTA
NATIONAL WEATHER SERVICE TWIN CITIES/CHANHASSEN MN
400 PM CDT THU MAY 24 2018


NOTE: "FAIR" INDICATES FEW OR NO CLOUDS BELOW 12,000 FEET WITH NO
SIGNIFICANT WEATHER AND/OR OBSTRUCTIONS TO VISIBILITY. N/A MEANS
CURRENT SKY AND/OR WEATHER CONDITIONS ARE NOT AVAILABLE.

MNZ060>063-068>070-242200-
   Twin Cities Metro

CITY           SKY/WX    TMP DP  RH WIND       PRES   REMARKS
TWIN CITIES    PTSUNNY   92  63  38 S16G26    29.90F HX  93
ST PAUL        FAIR      88  62  41 S17G29    29.90F
CRYSTAL        FAIR      92  61  35 S13G28    29.88F HX  92
BLAINE         PTSUNNY   91  61  35 S21G29    29.90F HX  91
LAKEVILLE      FAIR      90  61  37 SW9G16    29.92F
EDEN PRAIRIE   FAIR      90  63  40 SW14G26   29.89F HX  91
SOUTH ST PAUL  FAIR      90  57  33 S15G24    29.92F
LAKE ELMO      FAIR      90  61  37 S15G23    29.93F
$$
MNZ001>005-007-008-013>017-022>024-027-028-242200-
   Northwest Minnesota

CITY           SKY/WX    TMP DP  RH WIND       PRES   REMARKS
BEMIDJI        FAIR      84  61  45 S10       29.84F
HALLOCK        FAIR      90  54  29 SW20      29.70F
ROSEAU         FAIR      79  70  73 S13       29.78F
WARROAD        FAIR      75  70  83 S13       29.79F
THIEF RVR FALL PTSUNNY   85  59  41 S20G28    29.79F
CROOKSTON      FAIR      90  55  31 S24G32    29.75F
FOSSTON        FAIR      86  54  32 S17       29.81F
DETROIT LAKES  FAIR      86  57  37 SW7G20    29.84F
MOORHEAD       FAIR      90  52  27 S12       29.78F
PARK RAPIDS    FAIR      85  61  44 S17G29    29.84F
MAHNOMEN       FAIR      84  57  39 S16G22    29.82F
$$
MNZ006-009>011-018-025>026-242200-
   North Central Minnesota

CITY           SKY/WX    TMP DP  RH WIND       PRES   REMARKS
BAUDETTE       PTSUNNY   79  66  64 S13G21    29.81F
FLAG ISLAND    FAIR      72  64  78 SE5       29.79F
INTL FALLS     PTSUNNY   76  66  71 S8        29.87S
WASKISH          N/A     79  66  65 SE8       29.83F
BIG FORK       TSTM      68  66  94 SE6       29.91R
LONGVILLE      FAIR      81  68  65 SE6       29.87F
GRAND RAPIDS   TSTM      70  66  87 S10       29.91S
CRANE LAKE     FAIR      73  64  73 CALM      29.89F
ORR            FAIR      73  64  73 S3        29.86F
COOK           FAIR      79  66  65 S6        29.90F
WALKER         FAIR      79  68  69 S3        29.86F
$$
MNZ012-019>021-037-242200-
   Northeast Minnesota

CITY           SKY/WX    TMP DP  RH WIND       PRES   REMARKS
DULUTH         FAIR      78  67  68 SE7       29.93F
ELY            FAIR      79  63  57 S10G16    29.91F
HIBBING        PTSUNNY   78  65  63 S10G21    29.89F
EVELETH        FAIR      81  66  61 S14G20    29.92F
DULUTH HARBOR  CLOUDY    52  50  93 E7        29.94F FOG
TWO HARBORS    FAIR      82  72  69 SE7       29.92F
SILVER BAY     FAIR      77  63  61 SE5       29.93F
G MARAIS ARPRT PTSUNNY   64  57  77 S5        29.99F
$$
MNZ029>031-032-039>041-046>048-054>057-064-242200-
   West Central Minnesota

CITY           SKY/WX    TMP DP  RH WIND       PRES   REMARKS
FERGUS FALLS   FAIR      88  57  35 SW17G23   29.77F
WHEATON        FAIR      90  54  29 S15       29.83F
MORRIS         FAIR      91  57  31 SW21      29.83F HX  90
ALEXANDRIA     FAIR      92  56  29 W14G20    29.87F HX  90
ELBOW LAKE     FAIR      89  57  34 SW15G25   29.84F
WADENA         FAIR      84  61  45 SW17      29.84F
GLENWOOD       FAIR      90  59  35 SW14      29.87F
APPLETON       FAIR      91  52  25 SW7       29.83F
BENSON         FAIR      90  57  33 W13       29.86S
ORTONVILLE     FAIR      90  57  33 S10G17    29.84F
MADISON        FAIR      93  57  29 S14G20    29.84F HX  92
WILLMAR        FAIR      88  64  45 SW12      29.89F
$$
MNZ033>034-036-042>043-049>051-058-059-242200-
   Central Minnesota

CITY           SKY/WX    TMP DP  RH WIND       PRES   REMARKS
ST CLOUD       FAIR      89  59  36 S21G31    29.86F
SAUK CENTRE    MOCLDY    84  65  53 S13       29.88F
PAYNESVILLE    FAIR      87  65  47 S9G20     29.88F
PINE RIVER     FAIR      81  63  54 S12G20    29.90S
BRAINERD       FAIR      87  63  44 S16G31    29.87F
STAPLES        FAIR      86  61  42 SW12      29.86F
LONG PRAIRIE   FAIR      88  63  42 SE13G20   29.87F
LITTLE FALLS   FAIR      86  63  45 SW12      29.87F
LITCHFIELD     FAIR      90  66  45 SW5G17    29.87F HX  92
BUFFALO        FAIR      88  58  36 S14       29.89F
MAPLE LAKE     FAIR      90  61  37 S14G20    29.88F HX  90
HUTCHINSON     FAIR      91  66  43 S12G20    29.90F HX  93
$$
MNZ037-044-045-052-053-242200-
   East Central Minnesota

CITY           SKY/WX    TMP DP  RH WIND       PRES   REMARKS
PRINCETON      FAIR      90  61  37 S14G20    29.88F
MORA           FAIR      86  59  39 S15G21    29.90S
CAMBRIDGE      FAIR      93  68  43 S17G24    29.88F HX  97
RUSH CITY      FAIR      88  57  35 S12G17    29.89F
MOOSE LAKE     FAIR      79  68  69 SE6       29.89F
HINCKLEY       FAIR      88  66  48 S10G22    29.89F HX  90
CLOQUET        FAIR      73  63  68 SE6       29.92F
MCGREGOR       PTSUNNY   82  68  61 S14       29.89F
$$
MNZ071>073-080-081-089-090-097-098-242200-
   Southwest Minnesota

CITY           SKY/WX    TMP DP  RH WIND       PRES   REMARKS
MONTEVIDEO     FAIR      90  57  33 SW12G17   29.85F
CANBY          FAIR      90  58  33 SW10      29.86F
MARSHALL       FAIR      90  64  42 SW16      29.86F HX  91
REDWOOD FALLS  FAIR      85  66  53 S18       29.87F
OLIVIA         FAIR      82  64  54 S10G16    29.88F
PIPESTONE      FAIR      86  63  45 SW20G25   29.91F
WINDOM         FAIR      88  57  35 S18G28    29.90F
WORTHINGTON      N/A     88  59  37 S23       29.91F
JACKSON        FAIR      86  61  42 S20G30    29.94F
TRACY          FAIR      91  62  37 SW23G33   29.87F HX  91
SLAYTON        FAIR      89  57  33 SW25G35   29.91F
$$
MNZ065>067-074>077-082>085-091>093-242200-
   South Central Minnesota

CITY           SKY/WX    TMP DP  RH WIND       PRES   REMARKS
MANKATO        FAIR      90  61  37 S18G26    29.92F HX  90
NEW ULM        FAIR      82  64  54 S10       29.90F
ST JAMES       FAIR      90  61  37 S24G30    29.90F
FAIRMONT       FAIR      88  62  41 S21G30    29.92F
GLENCOE        FAIR      93  58  31 S16G23    29.89F HX  91
FARIBAULT      FAIR      90  57  33 S8G21     29.94F
OWATONNA       FAIR      90  63  40 S21       29.95F HX  90
WASECA         FAIR      86  59  39 S23       29.95F
ALBERT LEA     FAIR      84  55  37 S16       29.96F
$$
MNZ078>079-086>088-094>096-242200-
   Southeast Minnesota

CITY           SKY/WX    TMP DP  RH WIND       PRES   REMARKS
ROCHESTER      FAIR      89  59  36 S22G35    29.97F
RED WING       FAIR      91  48  22 S17G25    29.91F
STANTON        FAIR      89  60  37 SW20G26   29.92F
DODGE CENTER   FAIR      88  55  33 S26G35    29.97F
WINONA         FAIR      86  64  48 S10G18    29.97F
AUSTIN         FAIR      88  57  35 S18G24    29.97F
PRESTON        FAIR      86  60  40 S18       29.99F
$$
ABBREVIATIONS USED IN REMARKS
   TC - TEMPERATURES IN CELSIUS
  WCI - WIND CHILL INDEX
   HX - HEAT INDEX
  VSB - VISIBILITY
$$



USA.gov is the U.S. government's official web portal to all federal, state and local government web resources and services.